星链-31967 (STARLINK-31967 )

导读

STARLINK-31967是美国太空探索技术公司(SpaceX)星链计划中的一颗卫星,于2024年6月8日发射。作为星链星座组网的组成部分,它旨在为全球范围内用户提供高速互联网接入服务,尤其覆盖偏远地区等网络基础设施匮乏区域,推动全球卫星互联网的普及与组网建设。

基本信息
目录编号:
60021
目录名称:
STARLINK-31967
国际标识:
2024-111F
轨道中心:
EARTH
卫星名称:
星链-31967
卫星全名:
星链-31967 (STARLINK-31967 )
卫星状态:
在轨 (已飞行818 天)
发射日期:
2024-06-08 UTC
国别 :
美国 (US)
星等 :
--
轨道信息
数据来源 国际轨道数据 AOE轨道数据
星历时间 2026-09-03T22:45:06+0800
16小时前
查看轨道信息
2026-09-02T15:00:00+0800
2天前
查看轨道信息
半长轴 6840.868km 6840.879km
偏心率 0.0000863 0.0001031
轨道倾角 53.160° 53.160°
近地点辐角 100.268° 61.426°
升交点赤经 324.993° 331.179°
平近点角 259.842° 186.668°
近地点 462.14km 462.036km
远地点 463.322km 463.448km
周期 93.848分钟 93.849分钟
每日圈数 15.343909 15.343871
详细信息
固有亮度:
5
最大亮度:
1.5
卫星平台:
Starlink v2.0 mini
覆盖范围:
全球
运营商:
太空探索技术公司
运营商所在国:
美国
制造商(研发单位):
太空探索技术公司
制造商所在国:
美国
使用方式:
暂无
卫星简介
星链(Starlink)计划是由太空探索技术公司(SpaceX)提出的一个巨型低轨卫星互联网星座项目,计划在2019年至2024年间在太空搭建由约1.2万颗卫星组成的“星链”网络,其中1584颗将部署在地球上空550千米处的近地轨道,并从2020年开始工作。该卫星仍在工作。
2D轨道图
3D轨道图
轨道高度分析图
轨道倾角分析图
轨道综合分析图
查看轨道综合分析图
交会数据列表
事件ID 空间交会对象 最接近时刻(TCA) 交会距离 交会风险概率(CRP) 交会风险指数(CRI) 操作
CDM_260904-060606-002106-520622
2026-09-04T
06:06:17+0000
0.774 km
远距离
4.023567E-5 中风险 0.67
CDM_260904-161506-002106-520621
2026-09-04T
16:15:56+0000
1.298 km
极远距离
6.936197E-6 低风险 0.52
CDM_260904-074006-002106-520622
2026-09-04T
07:40:05+0000
2.326 km
极远距离
1.360243E-6 低风险 0.38
CDM_260904-144206-002106-520622
2026-09-04T
14:42:08+0000
2.341 km
极远距离
1.344473E-6 低风险 0.38